| time (UTC) | temp C | wind direction | speed KPH | gust KPH | rain 1hr cm | rain 24hr cm | rain mn cm | humidity % | barometer mb |
| 20260508203034 | 15 | 108 | 0.0 | 3.2 | 0.00 | 1.12 | 0.66 | 97 | 1006.3 |
| 20260508201535 | 15 | 170 | 0.0 | 1.6 | 0.00 | 1.12 | 0.66 | 97 | 1006.3 |
| 20260508200035 | 14 | 170 | 0.0 | 8.0 | 0.00 | 1.12 | 0.66 | 97 | 1006.2 |
| 20260508194535 | 14 | 124 | 0.0 | 0.0 | 0.00 | 1.12 | 0.66 | 97 | 1006.1 |
| 20260508193031 | 13 | 124 | 0.0 | 0.0 | 0.00 | 1.12 | 0.66 | 97 | 1006.0 |
| 20260508191531 | 14 | 124 | 0.0 | 3.2 | 0.00 | 1.12 | 0.66 | 97 | 1006.0 |
| 20260508190034 | 13 | 108 | 0.0 | 4.8 | 0.00 | 1.12 | 0.66 | 96 | 1005.8 |
| 20260508184539 | 14 | 121 | 0.0 | 3.2 | 0.00 | 1.12 | 0.66 | 97 | 1005.8 |
| 20260508183027 | 13 | 122 | 0.0 | 1.6 | 0.00 | 1.12 | 0.66 | 96 | 1005.8 |
| 20260508181535 | 14 | 121 | 0.0 | 0.0 | 0.00 | 1.12 | 0.66 | 96 | 1005.8 |
| 20260508180022 | 15 | 121 | 0.0 | 1.6 | 0.00 | 1.12 | 0.66 | 96 | 1005.9 |
| 20260508174530 | 15 | 121 | 0.0 | 1.6 | 0.00 | 1.12 | 0.66 | 96 | 1005.8 |
| 20260508173018 | 15 | 120 | 0.0 | 1.6 | 0.00 | 1.12 | 0.66 | 96 | 1005.8 |
| 20260508171517 | 15 | 335 | 3.2 | 9.7 | 0.00 | 1.12 | 0.66 | 96 | 1005.7 |
| 20260508170016 | 15 | 124 | 0.0 | 1.6 | 0.00 | 1.12 | 0.66 | 96 | 1005.4 |
| 20260508164515 | 15 | 124 | 0.0 | 1.6 | 0.03 | 1.12 | 0.66 | 96 | 1005.2 |
| 20260508163017 | 15 | 124 | 0.0 | 1.6 | 0.03 | 1.12 | 0.66 | 96 | 1005.2 |
| 20260508161513 | 15 | 125 | 0.0 | 3.2 | 0.05 | 1.12 | 0.66 | 96 | 1005.6 |
| 20260508160009 | 15 | 123 | 0.0 | 0.0 | 0.08 | 1.12 | 0.66 | 96 | 1005.6 |
| 20260508154509 | 15 | 122 | 0.0 | 1.6 | 0.13 | 1.09 | 0.64 | 96 | 1005.7 |
| 20260508153005 | 15 | 120 | 0.0 | 1.6 | 0.13 | 1.09 | 0.64 | 96 | 1006.0 |
| 20260508151505 | 15 | 121 | 0.0 | 1.6 | 0.15 | 1.09 | 0.61 | 96 | 1006.5 |
| 20260508150004 | 15 | 121 | 0.0 | 1.6 | 0.53 | 1.04 | 0.58 | 95 | 1006.6 |
| 20260508144502 | 16 | 183 | 0.0 | 4.8 | 0.51 | 0.99 | 0.51 | 95 | 1006.4 |
| 20260508143100 | 16 | 161 | 1.6 | 6.4 | 0.51 | 0.99 | 0.51 | 95 | 1006.6 |
| 20260508141600 | 16 | 68 | 4.8 | 16.1 | 0.46 | 0.97 | 0.48 | 94 | 1006.9 |
| 20260508140051 | 17 | 285 | 6.4 | 24.1 | 0.03 | 0.51 | 0.05 | 93 | 1006.8 |
| 20260508134559 | 18 | 32 | 11.3 | 29.0 | 0.00 | 0.61 | 0.03 | 94 | 1006.0 |
| 20260508133047 | 18 | 271 | 11.3 | 29.0 | 0.03 | 0.61 | 0.03 | 94 | 1006.3 |
| 20260508131545 | 18 | 337 | 14.5 | 27.4 | 0.03 | 0.61 | 0.03 | 93 | 1006.5 |
| 20260508130041 | 18 | 35 | 9.7 | 25.7 | 0.03 | 0.61 | 0.03 | 93 | 1006.7 |
| 20260508124540 | 18 | 96 | 12.9 | 20.9 | 0.03 | 0.71 | 0.03 | 93 | 1006.7 |
| 20260508123037 | 18 | 134 | 8.0 | 20.9 | 0.00 | 0.69 | 0.00 | 93 | 1006.7 |
| 20260508121540 | 18 | 28 | 11.3 | 22.5 | 0.00 | 0.69 | 0.00 | 93 | 1007.5 |
| 20260508120031 | 18 | 68 | 9.7 | 20.9 | 0.00 | 0.69 | 0.00 | 93 | 1007.8 |
| 20260508114529 | 18 | 84 | 6.4 | 19.3 | 0.00 | 0.69 | 0.69 | 93 | 1008.1 |
| 20260508113028 | 18 | 8 | 6.4 | 14.5 | 0.05 | 0.69 | 0.69 | 93 | 1008.4 |
| 20260508111526 | 18 | 86 | 6.4 | 17.7 | 0.05 | 0.69 | 0.69 | 94 | 1008.5 |
| 20260508110024 | 18 | 70 | 4.8 | 17.7 | 0.05 | 0.69 | 0.69 | 94 | 1009.1 |
| 20260508104523 | 18 | 25 | 6.4 | 12.9 | 0.05 | 0.69 | 0.69 | 93 | 1009.1 |
| 20260508103025 | 18 | 25 | 8.0 | 25.7 | 0.03 | 0.64 | 0.64 | 92 | 1009.7 |
| 20260508101521 | 18 | 239 | 8.0 | 16.1 | 0.00 | 0.61 | 0.61 | 93 | 1009.9 |
| 20260508100019 | 18 | 311 | 3.2 | 14.5 | 0.00 | 0.61 | 0.61 | 93 | 1010.1 |
| 20260508094515 | 18 | 113 | 3.2 | 16.1 | 0.00 | 0.61 | 0.61 | 92 | 1010.3 |
| 20260508093014 | 18 | 295 | 6.4 | 24.1 | 0.00 | 0.61 | 0.61 | 92 | 1010.2 |
| 20260508091512 | 18 | 113 | 8.0 | 19.3 | 0.00 | 0.61 | 0.61 | 93 | 1010.5 |
| 20260508090010 | 18 | 70 | 3.2 | 14.5 | 0.00 | 0.61 | 0.61 | 93 | 1010.6 |
| 20260508084508 | 18 | 168 | 4.8 | 17.7 | 0.00 | 0.61 | 0.61 | 94 | 1010.9 |
| 20260508083006 | 18 | 33 | 3.2 | 12.9 | 0.00 | 0.61 | 0.61 | 94 | 1011.0 |
| 20260508081515 | 18 | 107 | 3.2 | 14.5 | 0.00 | 0.61 | 0.61 | 94 | 1011.1 |
| 20260508080006 | 17 | 105 | 3.2 | 16.1 | 0.00 | 0.61 | 0.61 | 93 | 1010.9 |
| 20260508074505 | 17 | 73 | 4.8 | 12.9 | 0.00 | 0.61 | 0.61 | 93 | 1011.1 |
| 20260508073003 | 17 | 98 | 3.2 | 11.3 | 0.00 | 0.61 | 0.61 | 94 | 1011.2 |
| 20260508071502 | 17 | 46 | 1.6 | 9.7 | 0.00 | 0.61 | 0.61 | 93 | 1011.4 |
| 20260508070104 | 17 | 147 | 6.4 | 16.1 | 0.00 | 0.61 | 0.61 | 93 | 1011.7 |
| 20260508064700 | 17 | 176 | 3.2 | 16.1 | 0.00 | 0.61 | 0.61 | 92 | 1011.4 |
| 20260508063106 | 18 | 72 | 6.4 | 16.1 | 0.00 | 0.61 | 0.61 | 91 | 1011.9 |
| 20260508061557 | 18 | 342 | 4.8 | 12.9 | 0.00 | 0.61 | 0.61 | 90 | 1012.2 |
| 20260508060056 | 18 | 125 | 4.8 | 14.5 | 0.00 | 0.61 | 0.61 | 91 | 1012.4 |
| 20260508054553 | 18 | 8 | 4.8 | 14.5 | 0.00 | 0.61 | 0.61 | 91 | 1012.6 |
| 20260508053055 | 18 | 109 | 3.2 | 16.1 | 0.00 | 0.61 | 0.61 | 91 | 1012.6 |
| 20260508051552 | 18 | 110 | 3.2 | 12.9 | 0.00 | 0.61 | 0.61 | 91 | 1013.1 |
| 20260508050051 | 18 | 127 | 3.2 | 11.3 | 0.00 | 0.61 | 0.61 | 91 | 1013.0 |
| 20260508044547 | 18 | 59 | 1.6 | 14.5 | 0.00 | 0.61 | 0.61 | 91 | 1013.4 |
| 20260508043045 | 18 | 47 | 4.8 | 14.5 | 0.00 | 0.61 | 0.61 | 91 | 1013.3 |
| 20260508041545 | 18 | 73 | 6.4 | 19.3 | 0.00 | 0.61 | 0.61 | 91 | 1013.3 |
| 20260508040050 | 18 | 114 | 4.8 | 12.9 | 0.00 | 0.61 | 0.61 | 91 | 1013.6 |
| 20260508034542 | 18 | 46 | 4.8 | 12.9 | 0.03 | 0.61 | 0.61 | 91 | 1013.6 |
| 20260508033041 | 18 | 79 | 4.8 | 12.9 | 0.03 | 0.61 | 0.61 | 92 | 1013.7 |
| 20260508031539 | 17 | 53 | 8.0 | 16.1 | 0.03 | 0.61 | 0.61 | 93 | 1013.9 |
| 20260508030039 | 17 | 129 | 3.2 | 16.1 | 0.13 | 0.61 | 0.61 | 94 | 1014.2 |
| 20260508024546 | 17 | 102 | 4.8 | 12.9 | 0.10 | 0.61 | 0.61 | 95 | 1014.4 |
| 20260508023035 | 17 | 84 | 3.2 | 12.9 | 0.10 | 0.61 | 0.61 | 94 | 1014.5 |
| 20260508021534 | 17 | 84 | 3.2 | 11.3 | 0.10 | 0.61 | 0.61 | 93 | 1014.8 |
| 20260508020033 | 17 | 329 | 3.2 | 6.4 | 0.00 | 0.51 | 0.51 | 93 | 1015.0 |
| 20260508014537 | 18 | 80 | 1.6 | 9.7 | 0.00 | 0.51 | 0.51 | 93 | 1015.3 |
| 20260508013027 | 18 | 116 | 1.6 | 8.0 | 0.08 | 0.51 | 0.51 | 93 | 1015.7 |
| 20260508011528 | 18 | 79 | 1.6 | 8.0 | 0.18 | 0.51 | 0.51 | 94 | 1015.7 |
| 20260508010033 | 18 | 105 | 3.2 | 11.3 | 0.25 | 0.51 | 0.51 | 94 | 1015.5 |
| 20260508004523 | 17 | 68 | 1.6 | 11.3 | 0.25 | 0.51 | 0.51 | 93 | 1016.1 |
| 20260508003020 | 18 | 342 | 3.2 | 11.3 | 0.18 | 0.43 | 0.43 | 91 | 1016.5 |
| 20260508001518 | 18 | 102 | 1.6 | 9.7 | 0.05 | 0.30 | 0.30 | 89 | 1016.6 |
| 20260508000015 | 18 | 81 | 3.2 | 14.5 | 0.03 | 0.23 | 0.23 | 90 | 1017.0 |
| 20260507234517 | 18 | 88 | 3.2 | 9.7 | 0.03 | 0.23 | 0.23 | 91 | 1017.3 |
| 20260507233028 | 17 | 104 | 1.6 | 9.7 | 0.03 | 0.23 | 0.23 | 91 | 1017.6 |
| 20260507231509 | 18 | 120 | 8.0 | 27.4 | 0.03 | 0.23 | 0.23 | 88 | 1017.8 |
| 20260507230008 | 19 | 75 | 4.8 | 14.5 | 0.00 | 0.23 | 0.23 | 83 | 1017.8 |
| 20260507224508 | 20 | 120 | 3.2 | 11.3 | 0.00 | 0.23 | 0.23 | 84 | 1017.8 |
| 20260507223006 | 20 | 155 | 1.6 | 8.0 | 0.00 | 0.23 | 0.23 | 84 | 1018.0 |
| 20260507221510 | 19 | 103 | 3.2 | 9.7 | 0.00 | 0.23 | 0.23 | 86 | 1018.1 |
| 20260507220003 | 18 | 111 | 1.6 | 8.0 | 0.00 | 0.23 | 0.23 | 89 | 1018.2 |
| 20260507214502 | 18 | 128 | 3.2 | 11.3 | 0.00 | 0.23 | 0.23 | 88 | 1018.2 |
| 20260507213104 | 18 | 98 | 3.2 | 9.7 | 0.00 | 0.23 | 0.23 | 88 | 1018.3 |
| 20260507211615 | 19 | 68 | 1.6 | 9.7 | 0.00 | 0.23 | 0.23 | 88 | 1018.5 |
| 20260507210106 | 19 | 110 | 3.2 | 8.0 | 0.00 | 0.23 | 0.23 | 87 | 1018.6 |
| 20260507204558 | 19 | 102 | 1.6 | 8.0 | 0.00 | 0.23 | 0.23 | 91 | 1018.4 |